N1DWM Weather Reports


time (UTC)temp
C
wind
direction
speed
KPH
gust
KPH
rain 1hr
cm
rain 24hr
cm
rain mn
cm
humidity
%
barometer
mb
20260502191510 13 225 9.7 14.5 0.00 0.00 0.00 66 1010.4
20260502184511 13 232 6.4 12.9 0.00 0.00 0.00 71 1010.9
20260502183014 12 139 4.8 12.9 0.00 0.00 0.00 75 1010.8
20260502181513 12 214 0.0 9.7 0.00 0.00 0.00 78 1011.1
20260502163026 10 207 3.2 8.0 0.00 0.00 0.00 87 1011.8
20260502161524 10 144 1.6 6.4 0.00 0.00 0.00 87 1011.9
20260502151512 10 117 0.0 0.0 0.00 0.00 0.00 83 1012.2
20260502121525 9 299 0.0 4.8 0.00 0.00 0.00 84 1012.5
20260502114514 8 221 0.0 0.0 0.00 0.00 0.00 86 1012.5
20260502113029 8 221 0.0 0.0 0.00 0.00 0.00 85 1012.4
20260502111520 8 221 0.0 0.0 0.00 0.00 0.00 86 1012.4
20260502103019 7 221 0.0 0.0 0.00 0.00 0.00 86 1012.0
20260502101523 7 226 0.0 0.0 0.00 0.00 0.00 86 1012.0
20260502091523 7 226 0.0 0.0 0.00 0.00 0.00 83 1011.8
20260502071515 8 213 0.0 0.0 0.00 0.00 0.00 79 1011.9
20260502070022 8 213 0.0 0.0 0.00 0.00 0.00 79 1011.9
20260502064527 8 213 0.0 6.4 0.00 0.00 0.00 78 1011.9
20260502063028 8 165 0.0 0.0 0.00 0.00 0.00 77 1011.9
20260502061524 8 209 0.0 0.0 0.00 0.00 0.00 77 1011.8
20260502060018 8 227 0.0 0.0 0.00 0.00 0.00 77 1012.1
20260502054524 8 238 0.0 6.4 0.00 0.00 0.00 76 1012.2
20260502053024 8 207 1.6 8.0 0.00 0.00 0.00 75 1012.2
20260502051508 8 222 3.2 11.3 0.00 0.00 0.00 76 1012.4
20260502050013 8 250 0.0 4.8 0.00 0.00 0.00 76 1012.4
20260502044519 8 213 0.0 6.4 0.00 0.00 0.00 76 1012.4
20260502043029 8 217 3.2 8.0 0.00 0.00 0.00 75 1012.5
20260502041525 8 216 0.0 0.0 0.00 0.00 0.00 74 1012.4
20260502040011 8 200 0.0 3.2 0.00 0.00 0.00 74 1012.4
20260502034521 8 200 0.0 0.0 0.00 0.00 0.00 73 1012.5
20260502033023 9 200 0.0 0.0 0.00 0.00 0.00 72 1012.6
20260502030012 9 192 0.0 0.0 0.00 0.00 0.00 70 1012.5
20260502024524 9 192 0.0 0.0 0.00 0.00 0.00 70 1012.5
20260502023020 9 193 0.0 0.0 0.00 0.00 0.00 70 1012.5
20260502021527 9 188 0.0 0.0 0.00 0.00 0.00 69 1012.5
20260502020028 10 205 0.0 0.0 0.00 0.00 0.00 68 1012.5
20260502014513 10 244 0.0 0.0 0.00 0.00 0.00 67 1012.6
20260502013018 10 217 0.0 6.4 0.00 0.00 0.00 66 1012.7
20260502011528 10 218 0.0 3.2 0.00 0.00 0.00 65 1012.5
20260502010027 10 221 0.0 0.0 0.00 0.00 0.00 63 1012.3
20260502004528 11 243 0.0 9.7 0.00 0.00 0.00 60 1012.1
20260502003018 11 252 4.8 14.5 0.00 0.00 0.00 58 1011.9
20260502001522 11 254 3.2 16.1 0.00 0.00 0.00 54 1011.7
20260502000025 12 224 3.2 14.5 0.00 0.00 0.00 49 1011.3
20260501234529 13 238 0.0 17.7 0.00 0.00 0.00 42 1010.9
20260501233026 13 267 1.6 11.3 0.00 0.00 0.00 40 1010.7
20260501230022 13 231 3.2 16.1 0.00 0.00 0.00 40 1010.4
20260501224528 14 256 4.8 16.1 0.00 0.00 0.00 39 1010.2
20260501221528 15 234 1.6 14.5 0.00 0.00 0.00 39 1010.1
20260501220020 15 230 4.8 20.9 0.00 0.00 0.00 38 1010.0
20260501214537 15 242 3.2 17.7 0.00 0.00 0.00 38 1010.1
20260501213028 15 227 11.3 19.3 0.00 0.00 0.00 39 1010.0
20260501211513 15 248 9.7 22.5 0.00 0.00 0.00 39 1009.8
20260501210020 15 205 9.7 27.4 0.00 0.00 0.00 39 1009.7
20260501203006 17 337 1.6 16.1 0.00 0.00 0.00 33 1009.6
20260501201514 16 300 0.0 8.0 0.00 0.00 0.00 34 1009.5
20260501200023 16 279 4.8 17.7 0.00 0.00 0.00 33 1009.8
20260501194534 17 297 4.8 16.1 0.00 0.00 0.00 32 1009.7
20260501193006 17 278 6.4 17.7 0.00 0.00 0.00 33 1009.9